Vertical_Velocity
-2 0 0 -0 -0 -2 -1 -1 -0 0 -0 -1 -1 -1 -1 -2 -2 -3 -4 -4 -4 -3 -4 -2 0 -2 -4 -3 -0 -2 -2 -2
-0 -2 -0 0 -0 -2 -2 -3 -3 -3 -2 -2 -0 -2 -1 -3 -5 -4 -4 -4 -2 -1 -3 -3 -1 0 -2 -4 -2 0 -3 -9
-1 -1 -1 -1 -2 -2 -1 -0 -1 -1 -2 -2 -3 -3 -4 -5 -4 -5 -2 -5 -5 -6 -4 -7 -7 -5 -5 -4 -6 -0 -0 -5
1 -2 -1 -1 -1 -1 -1 -1 -1 -1 -1 -0 -2 -1 -2 -2 -3 -3 -5 -3 -3 -3 -4 -2 -3 -2 -4 -3 -3 -6 3 1
1 -1 -1 -3 -2 -1 -1 -1 0 0 -1 0 -1 -2 -3 -3 -1 -2 -2 -2 -4 -3 -1 -2 -0 0 -1 -1 -4 -5 -8 1
1 -1 1 -1 -2 -0 1 -0 -1 -2 1 -1 -1 -2 -2 -3 -3 -5 -3 -4 -3 -4 -1 -6 -6 -5 -4 -3 -1 -3 -7 -8
-1 -2 -1 1 -2 0 -1 -1 -1 -1 -1 -2 -3 -2 -3 -5 -5 -1 -3 -1 -0 -1 -5 -2 -5 -4 -3 -5 -6 -5 -6 -3
-3 -0 -3 2 -1 -0 -1 -2 -1 -2 -4 -4 -2 -2 -3 -3 -1 -3 -1 -2 -2 -0 -5 -4 -2 -2 -2 -4 -6 -9 -7 -3
-2 -1 -2 -0 -1 0 -1 -3 -2 -3 -5 -4 -4 -2 -5 -4 -3 -4 -5 -5 -1 -1 2 -1 -2 -5 -3 -2 -2 -2 -2 -4
-0 -1 -1 1 -2 -3 -3 -3 -2 -3 -3 -3 -4 -5 -3 -3 -4 -1 -1 -4 -3 -0 1 1 1 1 -2 -1 -3 -3 -1 -0
0 -2 2 -1 -2 -0 -1 -3 -2 -3 -3 -2 -3 -1 -5 -4 -3 -0 -2 -2 -1 -1 -2 -1 -2 -1 -3 -2 -4 -4 -2 0
-2 0 3 -4 -2 1 -1 -3 -1 -2 -3 -3 -5 -5 -2 -7 1 -3 -2 -1 -1 -2 -2 -1 -1 1 -1 1 2 -1 -2 -0
0 -0 2 -1 -1 -2 -0 -1 -4 -3 -2 -4 -1 -2 -2 -0 -4 -2 -2 -3 -2 -2 -2 -1 -2 0 2 2 3 1 0 0
-0 0 1 0 3 -1 -1 -4 -4 -2 -0 -0 -0 -3 -3 -0 -4 -2 -3 -2 -2 -3 -1 1 0 1 1 -0 -2 -0 1 1
2 -3 5 -3 2 -1 -0 -1 0 -1 -0 -5 -4 -1 -2 -1 -1 -1 -2 -2 -1 -2 -3 -2 -2 -1 2 -0 2 1 -2 -2
0 -6 11 -3 1 1 -1 1 -1 -3 -3 -1 -2 -1 -3 -2 -1 -3 -2 -2 -4 -3 -1 -2 -3 -5 3 -3 3 -2 -0 3
-0 -4 1 -3 1 1 -4 -2 -1 -3 1 -0 -1 -2 -2 -3 -4 -3 -3 -3 -3 -3 -3 -2 -3 -6 7 -5 -4 -3 -3 -2
-0 -1 -1 -1 -1 0 0 -2 -3 -2 -2 0 -2 -2 -1 -3 -4 -3 -4 -3 -3 -3 -2 -0 -1 -7 4 -4 -0 -1 -4 -3
-1 -2 -2 -3 -2 -1 -2 -4 3 1 -2 0 -2 -0 -2 -3 -2 -3 -2 -4 -2 -1 -2 -1 1 -4 5 -1 1 0 -1 -2
Height
5788 5787 5785 5783 5781 5779 5777 5774 5772 5769 5767 5764 5761 5758 5754 5751 5748 5744 5740 5736 5731 5725 5720 5716 5711 5707 5704 5702 5700 5697 5694 5694
5781 5780 5778 5776 5774 5772 5770 5766 5763 5760 5757 5753 5749 5745 5741 5737 5733 5728 5722 5718 5712 5707 5702 5698 5693 5689 5685 5683 5681 5679 5676 5672
5774 5772 5770 5768 5767 5764 5760 5756 5753 5749 5746 5741 5737 5733 5728 5723 5717 5712 5707 5701 5696 5691 5687 5682 5678 5673 5668 5665 5662 5660 5656 5653
5766 5764 5762 5760 5757 5754 5749 5746 5742 5738 5733 5729 5725 5720 5714 5708 5702 5696 5691 5686 5680 5675 5670 5665 5661 5657 5653 5649 5645 5642 5641 5637
5757 5755 5752 5749 5746 5741 5738 5734 5730 5726 5721 5717 5711 5706 5700 5694 5688 5682 5675 5669 5664 5659 5654 5650 5646 5642 5637 5634 5630 5627 5624 5621
5746 5744 5741 5738 5735 5731 5726 5723 5719 5714 5709 5704 5699 5693 5686 5680 5674 5667 5661 5655 5649 5644 5639 5634 5630 5626 5622 5619 5614 5610 5606 5602
5735 5732 5730 5726 5723 5719 5715 5711 5707 5702 5698 5692 5686 5679 5673 5667 5661 5655 5649 5644 5638 5631 5625 5620 5615 5612 5607 5603 5599 5594 5590 5583
5723 5721 5717 5715 5712 5707 5703 5699 5694 5690 5685 5679 5673 5667 5661 5655 5648 5642 5635 5629 5624 5618 5612 5607 5602 5596 5592 5587 5582 5578 5573 5568
5712 5709 5706 5704 5700 5696 5691 5687 5682 5678 5673 5667 5661 5655 5648 5642 5635 5628 5622 5616 5609 5604 5600 5595 5589 5585 5580 5574 5568 5563 5558 5554
5699 5696 5693 5691 5687 5684 5679 5675 5671 5666 5660 5654 5648 5641 5634 5628 5621 5615 5609 5603 5596 5591 5587 5582 5577 5572 5566 5560 5555 5550 5544 5540
5686 5684 5682 5679 5675 5670 5666 5663 5658 5652 5647 5641 5635 5628 5622 5615 5608 5601 5595 5589 5584 5579 5573 5568 5562 5557 5552 5547 5542 5537 5532 5526
5673 5671 5670 5666 5662 5659 5655 5650 5645 5640 5634 5629 5622 5616 5608 5601 5595 5588 5582 5576 5571 5566 5559 5553 5547 5542 5536 5532 5527 5523 5519 5513
5661 5660 5658 5654 5650 5646 5643 5638 5633 5627 5621 5615 5609 5603 5596 5589 5583 5576 5570 5564 5558 5551 5544 5538 5532 5526 5520 5515 5512 5507 5503 5499
5649 5648 5645 5641 5638 5634 5630 5625 5620 5614 5609 5604 5597 5590 5583 5577 5571 5565 5558 5552 5544 5537 5529 5522 5516 5510 5505 5500 5496 5493 5489 5485
5638 5636 5634 5628 5626 5622 5618 5612 5608 5602 5597 5591 5584 5577 5572 5566 5559 5553 5545 5538 5529 5522 5515 5509 5503 5498 5493 5488 5483 5479 5475 5472
5625 5622 5621 5617 5613 5610 5606 5601 5596 5590 5585 5578 5572 5566 5560 5554 5548 5540 5531 5523 5516 5511 5505 5500 5494 5489 5484 5478 5473 5467 5463 5459
5611 5608 5609 5605 5602 5599 5595 5590 5584 5579 5573 5566 5561 5554 5549 5542 5534 5526 5518 5512 5507 5502 5496 5491 5484 5478 5474 5467 5462 5457 5452 5447
5600 5598 5597 5595 5592 5588 5583 5578 5573 5567 5561 5556 5549 5543 5537 5529 5521 5514 5509 5505 5500 5494 5488 5483 5476 5469 5464 5456 5451 5445 5440 5434
5589 5587 5585 5583 5580 5576 5571 5566 5561 5556 5550 5544 5539 5532 5525 5517 5512 5507 5502 5497 5492 5486 5480 5474 5467 5460 5454 5447 5440 5433 5427 5420